TimeMDT,TemperatureF,Dew PointF,Humidity,Sea Level PressureIn,VisibilityMPH,Wind Direction,Wind SpeedMPH,Gust SpeedMPH,PrecipitationIn,Events,Conditions,WindDirDegrees,DateUTC
12:53 AM,66.9,60.1,79,29.88,10.0,SSW,4.6,-,N/A,,Clear,210,2013-07-11 06:53:00
1:53 AM,64.9,59.0,81,29.88,10.0,SSW,3.5,-,N/A,,Clear,200,2013-07-11 07:53:00
2:53 AM,64.9,57.9,78,29.86,10.0,South,4.6,-,N/A,,Clear,170,2013-07-11 08:53:00
3:53 AM,66.9,57.9,73,29.83,10.0,SSE,10.4,-,N/A,,Clear,160,2013-07-11 09:53:00
4:53 AM,64.0,57.9,80,29.82,10.0,SSE,9.2,-,N/A,,Clear,160,2013-07-11 10:53:00
5:53 AM,64.9,57.9,78,29.82,10.0,South,8.1,-,N/A,,Clear,170,2013-07-11 11:53:00
6:53 AM,68.0,57.9,70,29.81,10.0,South,5.8,-,N/A,,Clear,170,2013-07-11 12:53:00
7:53 AM,72.0,59.0,64,29.80,10.0,SSE,9.2,-,N/A,,Clear,150,2013-07-11 13:53:00
8:53 AM,77.0,60.1,56,29.78,10.0,SSE,11.5,-,N/A,,Clear,160,2013-07-11 14:53:00
9:53 AM,82.9,60.1,46,29.78,10.0,SSE,10.4,-,N/A,,Clear,150,2013-07-11 15:53:00
10:53 AM,88.0,57.0,35,29.75,10.0,South,18.4,23.0,N/A,,Clear,170,2013-07-11 16:53:00
11:53 AM,93.9,55.9,28,29.72,10.0,South,15.0,-,N/A,,Clear,170,2013-07-11 17:53:00
12:53 PM,96.1,42.1,15,29.69,10.0,South,16.1,26.5,N/A,,Clear,170,2013-07-11 18:53:00
1:53 PM,97.0,44.1,16,29.67,10.0,South,16.1,27.6,N/A,,Clear,180,2013-07-11 19:53:00
2:53 PM,95.0,48.9,21,29.65,10.0,ESE,11.5,-,N/A,,Clear,120,2013-07-11 20:53:00
3:53 PM,93.9,41.0,16,29.60,10.0,SSE,13.8,-,N/A,,Clear,160,2013-07-11 21:53:00
4:41 PM,93.2,37.4,14,29.81,10.0,SSE,8.1,39.1,N/A,,Mostly Cloudy,160,2013-07-11 22:41:00
4:53 PM,91.9,45.0,20,29.63,10.0,SE,11.5,23.0,N/A,,Mostly Cloudy,130,2013-07-11 22:53:00
5:53 PM,93.9,46.0,19,29.59,10.0,SSE,8.1,-,N/A,,Clear,150,2013-07-11 23:53:00
6:53 PM,88.0,48.9,26,29.59,10.0,SSE,19.6,25.3,N/A,,Clear,160,2013-07-12 00:53:00
7:53 PM,84.9,48.0,28,29.61,10.0,SSW,19.6,27.6,N/A,,Clear,200,2013-07-12 01:53:00
8:53 PM,82.9,46.9,28,29.62,10.0,SSW,11.5,-,N/A,,Clear,210,2013-07-12 02:53:00
9:53 PM,80.1,48.9,34,29.65,10.0,SSW,10.4,-,N/A,,Clear,200,2013-07-12 03:53:00
10:53 PM,73.0,51.1,46,29.66,10.0,West,8.1,-,N/A,,Clear,260,2013-07-12 04:53:00
11:53 PM,77.0,50.0,39,29.63,10.0,NW,15.0,23.0,N/A,,Clear,310,2013-07-12 05:53:00